Regional Weather Roundup
Issued by NWS New Orleans/Baton Rouge, LA

Home | Current Version | Previous Version | Text Only | Print | Product List | Glossary Off
Versions: 1 2 3 4 5 6 7 8 9 10 11 12 13 14 15 16 17 18 19 20 21 22 23 24 25 26 27 28 29 30 31 32 33 34 35 36 37 38 39 40 41 42 43 44 45 46 47 48 49 50

297
ASUS44 KLIX 011822
RWRLIX
NEW ORLEANS REGIONAL WEATHER ROUNDUP
NATIONAL WEATHER SERVICE NEW ORLEANS LA
100 PM CDT FRI AUG 01 2014

NOTE: "FAIR" INDICATES FEW OR NO CLOUDS BELOW 12,000 FEET WITH NO
      SIGNIFICANT WEATHER AND/OR OBSTRUCTIONS TO VISIBILITY.
      SKY/WX - SKY CONDITION AND SIGNIFICANT WEATHER.
      TMP - AIR TEMPERATURE.     DP    - DEWPOINT TEMPERATURE.
      RH  - RELATIVE HUMIDITY.   PRES  - PRESSURE.
      HI  - HEAT INDEX.          WCI   - WIND CHILL INDEX.

*  THESE STATIONS ARE NOT NWS OR FAA STATIONS AND ARE NOT UNDER
   NWS QUALITY CONTROL.

LAZ038-040-048-061>063-065>067-069-011900-
SOUTHEAST LOUISIANA

CITY           SKY/WX    TMP DP  RH WIND       PRES   REMARKS
N.O. AUDUBON     N/A     89  70  53 MISG        N/A  HX  95
6HR MIN TEMP:  79; 6HR MAX TEMP:  91;

N.O. INTL ARPT CLOUDY    88  69  53 CALM      30.00F
6HR MIN TEMP:  78; 6HR MAX TEMP:  88;

N.O. LAKEFRONT CLOUDY    85  68  56 NE10      30.01F
6HR MIN TEMP:  79; 6HR MAX TEMP:  85;

N.O. DOWNTOWN* MOCLDY    88  66  48 E3        30.01S
6HR MIN TEMP:  81; 6HR MAX TEMP:  88;

SLIDELL        CLOUDY    84  69  60 N6        30.01S
6HR MIN TEMP:  73; 6HR MAX TEMP:  85;

BATON ROUGE    CLOUDY    83  69  62 SE8       29.99F
6HR MIN TEMP:  72; 6HR MAX TEMP:  83; 6HR PCP:  0.01;

BOOTHVILLE     PTSUNNY   84  67  56 E3        30.02S
6HR MIN TEMP:  77; 6HR MAX TEMP:  86; 6HR PCP:  0.01;

BELLE CHASSE   CLOUDY    86  69  56 NE7       30.00S
6HR MIN TEMP:  75; 6HR MAX TEMP:  87;

BOGALUSA*        N/A     79  68  69 E3        30.04F
6HR MIN TEMP:  73; 6HR MAX TEMP:  79;

GALLIANO*      NOT AVBL
NEW ROADS*     LGT RAIN  77  75  95 CALM      29.99F
6HR MIN TEMP:  73; 6HR MAX TEMP:  80; 6HR PCP:  0.20;

GONZALES*        N/A     85  69  57 S8        29.99F
6HR MIN TEMP:  73; 6HR MAX TEMP:  86;

HAMMOND*       CLOUDY    84  68  58 E3        30.02S
HOUMA*         PTSUNNY   86  64  48 SE6       30.01S
PORT FOURCHON* CLEAR     84  70  61 VRB7      30.02S

$$

MSZ070-080>082-011900-
SOUTHERN MISSISSIPPI

CITY           SKY/WX    TMP DP  RH WIND       PRES   REMARKS
MCCOMB         CLOUDY    73  68  84 E3        30.04F
6HR MIN TEMP:  71; 6HR MAX TEMP:  73; 6HR PCP:  0.07;

GULFPORT       CLOUDY    86  63  45 NE5       30.01F
6HR MIN TEMP:  77; 6HR MAX TEMP:  87;

BILOXI         CLOUDY    82  66  59 NE5       30.02S
6HR MIN TEMP:  73; 6HR MAX TEMP:  82; 6HR PCP: TRACE;

PASCAGOULA     CLOUDY    84  67  56 N5        30.02S
6HR MIN TEMP:  71; 6HR MAX TEMP:  85; 6HR PCP: TRACE;

STENNIS ARPT*  MOSUNNY  N/A N/A N/A CALM      30.01F

$$

COASTAL OBSERVATIONS
LAKE AND NEARSHORE STATIONS

STATION/POSITION TIME  TEMP    WIND        PRES    WAVE
                       AIR SEA DIR/SP/G            HT/PER
                 (UTC) (F)     (DEG/KT/KT) (MB)    (FT/S)
PASCAGOULA       1800   83     220/  4/  5 1015.9
WAVELAND YACHT   1800   82      70/  4/  5 1015.7
GRAND ISLE       1800   83 86  130/  4/  6 1016.7
SOUTHWEST PASS   1800   90 85  110/  3/  5 1016.6
NEW CANAL        1800   83 83   50/  9/ 11 1016.4
SHELL BEACH      1800   83 82   10/  6/  8 1015.9

OFFSHORE STATIONS

STATION/POSITION TIME  TEMP    WIND        PRES    WAVE
                       AIR SEA DIR/SP/G            HT/PER
                 (UTC) (F)     (DEG/KT/KT) (MB)    (FT/S)
64 S DAUPHIN ISL 1701   82 86   60/  4/  6 1016.4

$$




USA.gov is the U.S. government's official web portal to all federal, state and local government web resources and services.